KC2RP Weather Reports


time (UTC)temp
C
wind
direction
speed
KPH
gust
KPH
rain 1hr
cm
rain 24hr
cm
rain mn
cm
humidity
%
barometer
mb
20260506230055 8 77 0.0 0.0 0.08 2.01 1.93 97 1007.0
20260506224545 8 79 0.0 0.0 0.03 1.96 1.88 97 1006.8
20260506223052 8 46 0.0 0.0 0.03 1.93 1.85 97 1006.4
20260506221542 8 355 0.0 1.6 0.03 1.93 1.85 97 1006.3
20260506220042 8 314 0.0 4.8 0.03 1.93 1.85 97 1005.7
20260506214540 8 354 0.0 8.0 0.03 1.93 1.85 97 1005.8
20260506213059 8 35 0.0 3.2 0.03 1.91 1.83 97 1005.6
20260506211549 8 349 0.0 3.2 0.03 1.91 1.83 97 1005.2
20260506210035 9 32 0.0 6.4 0.13 1.91 1.83 97 1004.8
20260506204531 10 136 0.0 8.0 0.13 1.91 1.83 97 1004.6
20260506203030 11 20 0.0 3.2 0.10 1.88 1.80 97 1004.6
20260506201534 13 281 0.0 8.0 0.10 1.88 1.80 97 1003.7
20260506200024 16 81 0.0 0.0 0.00 1.78 1.70 97 1003.4
20260506194527 16 54 0.0 0.0 0.03 1.78 1.70 97 1003.6
20260506193020 16 9 0.0 0.0 0.08 1.78 1.70 97 1003.7
20260506191520 16 237 0.0 1.6 0.15 1.78 1.70 97 1003.8
20260506190019 16 204 0.0 1.6 0.20 1.78 1.70 97 1003.7
20260506184517 16 18 0.0 0.0 0.25 1.75 1.68 97 1004.0
20260506183026 15 256 0.0 3.2 0.23 1.70 1.63 97 1004.0
20260506181514 15 232 0.0 0.0 0.23 1.63 1.55 97 1004.2
20260506180013 15 253 0.0 1.6 0.36 1.57 1.50 97 1004.2
20260506174511 15 354 0.0 3.2 0.38 1.50 1.42 97 1004.0
20260506173007 15 36 0.0 3.2 0.43 1.45 1.40 97 1004.2
20260506171505 14 233 0.0 0.0 0.41 1.40 1.32 97 1004.4
20260506170115 13 236 0.0 0.0 0.28 1.22 1.14 97 1004.7
20260506164601 13 238 0.0 0.0 0.25 1.12 1.04 97 1004.9
20260506163109 13 236 0.0 0.0 0.30 1.07 0.99 97 1004.9
20260506161555 13 236 0.0 3.2 0.28 0.99 0.91 97 1005.0
20260506160052 13 228 0.0 0.0 0.28 0.94 0.86 97 1005.3
20260506154550 13 228 0.0 0.0 0.23 0.84 0.76 97 1005.5
20260506153047 13 228 0.0 0.0 0.23 0.76 0.69 97 1005.7
20260506151547 13 228 0.0 0.0 0.28 0.71 0.64 97 1005.7
20260506150045 12 228 0.0 0.0 0.25 0.66 0.58 97 1005.9
20260506144559 12 228 0.0 0.0 0.25 0.61 0.53 97 1006.3
20260506143043 12 229 0.0 0.0 0.18 0.51 0.43 97 1006.5
20260506141543 12 228 0.0 0.0 0.18 0.43 0.36 97 1006.6
20260506140045 12 228 0.0 0.0 0.20 0.41 0.33 97 1006.6
20260506134541 12 228 0.0 0.0 0.20 0.36 0.28 97 1006.5
20260506133043 12 228 0.0 0.0 0.18 0.30 0.23 97 1006.2
20260506131539 12 228 0.0 0.0 0.15 0.25 0.18 97 1006.2
20260506130038 12 228 0.0 0.0 0.13 0.20 0.13 97 1006.3
20260506124537 12 200 0.0 0.0 0.08 0.15 0.08 97 1006.4
20260506123036 12 200 0.0 0.0 0.05 0.13 0.05 97 1006.8
20260506121537 11 200 0.0 0.0 0.00 0.08 0.00 97 1007.1
20260506120041 11 200 0.0 0.0 0.00 0.08 0.00 97 1007.1
20260506114534 11 201 0.0 0.0 0.00 0.08 0.00 97 1006.8
20260506113034 11 199 0.0 0.0 0.00 0.08 0.00 97 1006.7
20260506111530 -17 0.0 0.0 0.00 0.08 0.00 1006.3
20260506110026 -17 0.0 0.0 0.00 0.08 0.00 1006.5
20260506104521 -17 0.0 0.0 0.00 0.08 0.00 1006.9
20260506103016 -17 0.0 0.0 0.00 0.08 0.00 1006.2
20260506101512 -17 0.0 0.0 0.00 0.08 0.00 1006.5
20260506100009 -17 0.0 0.0 0.00 0.08 0.00 1006.1
20260506094505 -17 0.0 0.0 0.00 0.08 0.00 1006.1
20260506093059 -17 0.0 0.0 0.00 0.08 0.00 1006.0
20260506091604 -17 0.0 0.0 0.00 0.08 0.00 1005.9
20260506090054 -17 0.0 0.0 0.00 0.08 0.00 1006.3
20260506084601 -17 0.0 0.0 0.00 0.08 0.00 1006.2
20260506083043 11 294 0.0 0.0 0.00 0.08 0.00 95 1006.4
20260506081542 11 294 0.0 0.0 0.00 0.08 0.00 96 1006.6
20260506073035 11 294 0.0 0.0 0.00 0.08 0.00 96 1007.1
20260506071534 12 294 0.0 0.0 0.00 0.08 0.00 96 1007.0
20260506061544 12 288 0.0 3.2 0.00 0.08 0.00 96 1007.5
20260506044521 13 345 0.0 0.0 0.00 0.08 0.00 96 1007.9
20260506043028 13 345 0.0 0.0 0.00 0.08 0.00 96 1007.5
20260506041512 13 341 0.0 0.0 0.00 0.08 0.00 96 1007.5
20260506040010 13 25 0.0 1.6 0.00 0.08 0.00 96 1007.0
20260506034508 14 290 0.0 4.8 0.00 0.08 0.00 96 1007.2
20260506033005 14 304 0.0 4.8 0.00 0.08 0.00 95 1007.4
20260506031501 15 279 0.0 0.0 0.00 0.08 0.08 95 1007.4
20260506030059 15 30 0.0 4.8 0.00 0.08 0.08 95 1007.2
20260506024600 15 312 0.0 4.8 0.00 0.08 0.08 95 1006.9
20260506023056 15 277 0.0 4.8 0.08 0.08 0.08 95 1006.9
20260506021604 15 328 0.0 0.0 0.08 0.08 0.08 95 1006.9
20260506020054 15 328 0.0 0.0 0.08 0.08 0.08 95 1006.5
20260506014553 16 326 0.0 0.0 0.08 0.08 0.08 93 1006.3
20260506013057 16 326 0.0 0.0 0.00 0.00 0.00 89 1006.3
20260506011603 16 326 0.0 0.0 0.00 0.00 0.00 88 1006.0
20260506010050 16 326 0.0 0.0 0.00 0.00 0.00 87 1005.8
20260506004549 16 326 0.0 0.0 0.00 0.00 0.00 86 1005.8
20260506003048 16 326 0.0 0.0 0.00 0.00 0.00 85 1005.8
20260506001551 16 326 0.0 0.0 0.00 0.00 0.00 84 1005.2
20260506000048 17 326 0.0 0.0 0.00 0.00 0.00 83 1005.1
20260505234551 17 326 0.0 0.0 0.00 0.00 0.00 80 1004.8
20260505233046 17 326 0.0 0.0 0.00 0.00 0.00 79 1004.6
20260505231602 18 326 0.0 0.0 0.00 0.00 0.00 79 1004.6